STARLINK-31853, 59933

Orbit data source: Space-Track

STARLINK-31853, 59933 is a payload satellite owned by SpaceX/Seattle (US) in LEO that was launched on Sat, 01 Jun 2024 UTC via an FALCON 9 launch vehicle from the Air Force Eastern Test Range (AFETR). Payload-class satellites include a variety of spacecraft equipped with specific instruments for various scientific and technological missions. These include communications satellites like Starlink; space stations such as the ISS; scientific satellites like the Hubble; Earth observation satellites from companies like Planet Labs, Umbra, and HawkEye 360; GPS; miniature CubeSats for education and research; and military/defense satellites.

Loading next visibility...
Identifier
59933, 2024-106M
Orbit
LEO
Country
Flag of USUS
Related business
Manufacturer
SpaceX/Seattle
Mission
Operational Commercial Communications
Bus & Motor
STARLINK V2M, Unknown motor
Mass
730 kg wet, ~700 kg dry
Launch date (UTC)
2024-06-01 (2 years ago)
Launch vehicle
FALCON 9
Launch site
Air Force Eastern Test Range (AFETR)
Object type
Payload
Rocket body
Debris
Shape & HBR
Box + 2 Pan, 17.7 m
Radar Cross Section
33.884 m², Large (>1 m²)

Expand to show TLE details & history
Last TLE update: 9 hours ago

TLE from 9 hours ago
0 STARLINK-31853
1 59933U 24106M   26177.76094176 -.00001835  00000-0 -57221-4 0  9995
2 59933  43.0009  76.5641 0000364 204.3150 155.7684 15.27564720117200
Epoch: 2026-06-26T18:15Z
TLE epoch observation values (Epoch: 2026-06-26T18:15:45.368Z)
Latitude
-0.00004°
Longitude
-112.25979°
Altitude
483.098 km
Speed
7.626 km/s
True Right ascension
05h 06m 15s
True Declination
0° 00' 00"
Sunlit
Object was in daylight at epoch
Visualization orbit readout
Latitude
Unknown
Longitude
Unknown
Altitude
Unknown
Speed
Unknown
Apparent Right ascension
Unknown
Apparent Declination
Unknown
Sunlit
N/A
Visualization observer readout
Local Sidereal Time
14:10:38
Azimuth
Unknown
Elevation
Unknown
Doppler factor
Unknown
Orbital elements
Apogee altitude
485.29 km
Perigee altitude
484.79 km
Semi-major axis
6,863.177 km
Eccentricity
0.00004
Inclination
43.0009°
RAAN
76.5641°
Arg. of periapsis
204.315°
True anomaly
155.77011°
Mean anomaly
155.7684°
Eccentric anomaly
155.76926°
Mean motion
3.81729 °/min
Orbital period
94.31 mins
BSTAR
-0.000057221
Loading maneuver chart data...
Computing Atmospheric mass density...
Loading historical data...
Loading historical data...
Loading historical data...
Loading historical data...
Loading historical data...
Loading historical data...
Loading historical data...

Documentation

Showing up to 5 results
|